Location: Biltmore Gardens
(41.6070°N, 83.4666°W)
Time: 13:31:36
(UTC+00:00)

Cosmos 2369 Rocket - Pass Details

Date: 14 July 2020
Orbit: 830 x 851 km, 71.0° (Epoch: 04 August)

Event Time Altitude Azimuth Distance (km) Brightness Sun altitude
Rises 06:09:02 0° 316° (NW) 3,383 5.9 -26.4°
Reaches altitude 10° 06:12:39 10° 293° (WNW) 2,447 4.7 -26.3°
Enters shadow 06:14:48 14° 270° (W) 2,180 4.2 -26.3°
